Starlink 32439

operational
NORAD ID: 61665 Int'l Des: 2024-193 Owner: SPXS Country: US Constellation: starlink
LEOCIRCULAR

关于 Starlink 32439

正在加载描述...

实时位置

正在加载3D地球...

即将过境

高度历史

Altitude vs Time

uPlot chart will show altitude changes over time

两行轨道根数

1 61665U 24193E 25352.64471341 .00000031 00000-0 13160-4 0 9999
2 61665 53.1611 107.7834 0001179 82.0654 278.0480 15.30192276 64113
Epoch: Dec 18, 2025 • Age: 41 hours

当前状态

高度 475.3 km
速度 7.63 km/s
星下点 17.36°N, 43.33°E
发射日期 Oct 26, 2024
运行时间 1.1 years
类型 internet

技术详情

分类 Payload
质量 730.00 kg
干质量 700.00 kg
总质量 730.00 kg
长度 0.30 m
直径 4.10 m
跨度 29.00 m
形状 Box + pan
制造商 SPXS
平台类型 Starlink V2M
阶段状态 In Orbit
所有者/国家 SPXS/US

大型星座

Loading constellations...